Time,TemperatureF,DewpointF,PressureIn,WindDirection,WindDirectionDegrees,WindSpeedMPH,WindSpeedGustMPH,Humidity,HourlyPrecipIn,Conditions,Clouds,dailyrainin,SoftwareType,DateUTC
2013-03-26 00:03:00,35.0,31.0,29.73,NW,308,0.0,1.0,85,0.00,,,0.00,,2013-03-26 04:03:00,
2013-03-26 00:12:00,35.0,31.0,29.73,NW,308,0.0,1.0,85,0.00,,,0.00,,2013-03-26 04:12:00,
2013-03-26 00:23:00,35.0,31.0,29.73,NW,304,0.0,0.0,84,0.00,,,0.00,,2013-03-26 04:23:00,
2013-03-26 00:33:00,35.0,31.0,29.73,NW,304,0.0,2.0,84,0.00,,,0.00,,2013-03-26 04:33:00,
2013-03-26 00:43:00,35.0,31.0,29.73,NW,304,0.0,2.0,84,0.00,,,0.00,,2013-03-26 04:43:00,
2013-03-26 00:53:00,35.0,30.0,29.73,NW,304,0.0,0.0,82,0.00,,,0.00,,2013-03-26 04:53:00,
2013-03-26 01:02:00,34.0,29.0,29.73,NW,304,0.0,0.0,82,0.00,,,0.00,,2013-03-26 05:02:00,
2013-03-26 01:12:00,34.0,29.0,29.73,NW,304,0.0,0.0,82,0.00,,,0.00,,2013-03-26 05:12:00,
2013-03-26 01:22:00,34.0,29.0,29.73,WNW,303,2.0,2.0,82,0.00,,,0.00,,2013-03-26 05:22:00,
2013-03-26 01:32:00,34.0,29.0,29.73,SSW,208,1.0,3.0,82,0.00,,,0.00,,2013-03-26 05:32:00,
2013-03-26 01:42:00,34.0,29.0,29.73,SSW,208,1.0,3.0,82,0.00,,,0.00,,2013-03-26 05:42:00,
2013-03-26 01:52:00,34.0,29.0,29.73,SW,217,0.0,0.0,83,0.00,,,0.00,,2013-03-26 05:52:00,
2013-03-26 02:02:00,34.0,29.0,29.73,SW,230,1.0,3.0,83,0.00,,,0.00,,2013-03-26 06:02:00,
2013-03-26 02:12:00,34.0,29.0,29.73,SW,230,1.0,3.0,83,0.00,,,0.00,,2013-03-26 06:12:00,
2013-03-26 02:22:00,34.0,29.0,29.73,SSW,193,3.0,4.0,83,0.00,,,0.00,,2013-03-26 06:22:00,
2013-03-26 02:32:00,34.0,29.0,29.74,SSW,200,2.0,3.0,83,0.00,,,0.00,,2013-03-26 06:32:00,
2013-03-26 02:42:00,34.0,29.0,29.74,SSW,200,2.0,3.0,83,0.00,,,0.00,,2013-03-26 06:42:00,
2013-03-26 02:52:00,34.0,29.0,29.74,SSW,208,0.0,5.0,82,0.00,,,0.00,,2013-03-26 06:52:00,
2013-03-26 03:02:00,34.0,29.0,29.74,SSW,209,2.0,5.0,82,0.00,,,0.00,,2013-03-26 07:02:00,
2013-03-26 03:12:00,34.0,29.0,29.74,SSW,209,2.0,5.0,82,0.00,,,0.00,,2013-03-26 07:12:00,
2013-03-26 03:22:00,34.0,29.0,29.74,SSW,202,0.0,4.0,82,0.00,,,0.00,,2013-03-26 07:22:00,
2013-03-26 03:33:00,34.0,29.0,29.74,SSW,202,0.0,0.0,82,0.00,,,0.00,,2013-03-26 07:33:00,
2013-03-26 03:42:00,34.0,29.0,29.74,SSW,202,0.0,0.0,82,0.00,,,0.00,,2013-03-26 07:42:00,
2013-03-26 03:53:00,34.0,29.0,29.74,SSW,202,0.0,0.0,82,0.00,,,0.00,,2013-03-26 07:53:00,
2013-03-26 04:02:00,34.0,29.0,29.74,SSW,202,0.0,0.0,82,0.00,,,0.00,,2013-03-26 08:02:00,
2013-03-26 04:12:00,34.0,29.0,29.74,SSW,202,0.0,0.0,82,0.00,,,0.00,,2013-03-26 08:12:00,
2013-03-26 04:22:00,34.0,29.0,29.74,SSW,204,0.0,0.0,82,0.00,,,0.00,,2013-03-26 08:22:00,
2013-03-26 04:32:00,35.0,30.0,29.74,SSW,204,0.0,0.0,82,0.00,,,0.00,,2013-03-26 08:32:00,
2013-03-26 04:42:00,35.0,30.0,29.74,SSW,204,0.0,0.0,82,0.00,,,0.00,,2013-03-26 08:42:00,
2013-03-26 04:52:00,35.0,30.0,29.74,SSW,204,0.0,0.0,82,0.00,,,0.00,,2013-03-26 08:52:00,
2013-03-26 05:02:00,35.0,30.0,29.74,SSW,204,0.0,0.0,82,0.00,,,0.00,,2013-03-26 09:02:00,
2013-03-26 05:12:00,35.0,30.0,29.74,SSW,204,0.0,0.0,82,0.00,,,0.00,,2013-03-26 09:12:00,
2013-03-26 05:22:00,35.0,30.0,29.75,WNW,282,3.0,6.0,83,0.00,,,0.00,,2013-03-26 09:22:00,
2013-03-26 05:33:00,36.0,31.0,29.75,West,281,1.0,5.0,82,0.00,,,0.00,,2013-03-26 09:33:00,
2013-03-26 05:43:00,36.0,31.0,29.75,West,281,1.0,5.0,82,0.00,,,0.00,,2013-03-26 09:43:00,
2013-03-26 05:52:00,36.0,31.0,29.75,West,281,0.0,3.0,82,0.00,,,0.00,,2013-03-26 09:52:00,
2013-03-26 06:03:00,36.0,31.0,29.75,West,278,0.0,3.0,82,0.00,,,0.00,,2013-03-26 10:03:00,
2013-03-26 06:12:00,36.0,31.0,29.75,West,278,0.0,3.0,82,0.00,,,0.00,,2013-03-26 10:12:00,
2013-03-26 06:22:00,36.0,31.0,29.76,West,274,3.0,6.0,82,0.00,,,0.00,,2013-03-26 10:22:00,
2013-03-26 06:32:00,36.0,31.0,29.76,West,276,4.0,5.0,81,0.00,,,0.00,,2013-03-26 10:32:00,
2013-03-26 06:42:00,36.0,31.0,29.76,West,276,4.0,5.0,81,0.00,,,0.00,,2013-03-26 10:42:00,
2013-03-26 06:53:00,36.0,31.0,29.77,West,280,2.0,6.0,81,0.00,,,0.00,,2013-03-26 10:53:00,
2013-03-26 07:03:00,36.0,31.0,29.77,West,277,3.0,5.0,81,0.00,,,0.00,,2013-03-26 11:03:00,
2013-03-26 07:12:00,36.0,31.0,29.77,West,277,3.0,5.0,81,0.00,,,0.00,,2013-03-26 11:12:00,
2013-03-26 07:22:00,36.0,31.0,29.77,West,274,4.0,9.0,81,0.00,,,0.00,,2013-03-26 11:22:00,
2013-03-26 07:32:00,36.0,31.0,29.78,West,279,4.0,7.0,81,0.00,,,0.00,,2013-03-26 11:32:00,
2013-03-26 07:42:00,36.0,31.0,29.78,West,279,4.0,7.0,81,0.00,,,0.00,,2013-03-26 11:42:00,
2013-03-26 07:52:00,36.0,31.0,29.78,WNW,285,4.0,9.0,81,0.00,,,0.00,,2013-03-26 11:52:00,
2013-03-26 08:03:00,36.0,31.0,29.78,WNW,285,4.0,9.0,81,0.00,,,0.00,,2013-03-26 12:03:00,
2013-03-26 08:12:00,36.0,31.0,29.79,West,280,4.0,9.0,81,0.00,,,0.00,,2013-03-26 12:12:00,
2013-03-26 08:22:00,37.0,31.0,29.80,West,275,4.0,7.0,80,0.00,,,0.00,,2013-03-26 12:22:00,
2013-03-26 08:32:00,37.0,31.0,29.80,WNW,283,4.0,6.0,80,0.00,,,0.00,,2013-03-26 12:32:00,
2013-03-26 08:42:00,37.0,31.0,29.80,WNW,283,4.0,6.0,80,0.00,,,0.00,,2013-03-26 12:42:00,
2013-03-26 08:52:00,37.0,31.0,29.80,WNW,284,6.0,7.0,80,0.00,,,0.00,,2013-03-26 12:52:00,
2013-03-26 09:03:00,37.0,31.0,29.80,WNW,302,3.0,7.0,79,0.00,,,0.00,,2013-03-26 13:03:00,
2013-03-26 09:12:00,37.0,31.0,29.80,WNW,302,3.0,7.0,79,0.00,,,0.00,,2013-03-26 13:12:00,
2013-03-26 09:22:00,38.0,32.0,29.81,WNW,288,4.0,8.0,79,0.00,,,0.00,,2013-03-26 13:22:00,
2013-03-26 09:32:00,38.0,32.0,29.81,WNW,283,5.0,6.0,80,0.00,,,0.00,,2013-03-26 13:32:00,
2013-03-26 09:42:00,38.0,32.0,29.81,WNW,283,5.0,6.0,80,0.00,,,0.00,,2013-03-26 13:42:00,
2013-03-26 09:52:00,38.0,32.0,29.82,NW,311,4.0,6.0,80,0.00,,,0.00,,2013-03-26 13:52:00,
2013-03-26 10:02:00,38.0,32.0,29.82,WNW,288,4.0,7.0,80,0.00,,,0.00,,2013-03-26 14:02:00,
2013-03-26 10:12:00,38.0,32.0,29.82,WNW,288,4.0,7.0,80,0.00,,,0.00,,2013-03-26 14:12:00,
2013-03-26 10:22:00,39.0,33.0,29.83,NNW,335,4.0,7.0,78,0.00,,,0.00,,2013-03-26 14:22:00,
2013-03-26 10:32:00,40.0,33.0,29.83,NNW,346,4.0,13.0,76,0.00,,,0.00,,2013-03-26 14:32:00,
2013-03-26 10:42:00,40.0,33.0,29.83,NNW,346,4.0,13.0,76,0.00,,,0.00,,2013-03-26 14:42:00,
2013-03-26 10:53:00,40.0,32.0,29.83,NNE,15,4.0,9.0,73,0.00,,,0.00,,2013-03-26 14:53:00,
2013-03-26 11:02:00,41.0,33.0,29.84,NNW,343,4.0,10.0,73,0.00,,,0.00,,2013-03-26 15:02:00,
2013-03-26 11:12:00,41.0,33.0,29.84,NNW,343,4.0,10.0,73,0.00,,,0.00,,2013-03-26 15:12:00,
2013-03-26 11:22:00,41.0,32.0,29.84,WNW,301,3.0,12.0,70,0.00,,,0.00,,2013-03-26 15:22:00,
2013-03-26 11:33:00,41.0,32.0,29.84,NW,315,6.0,7.0,69,0.00,,,0.00,,2013-03-26 15:33:00,
2013-03-26 11:43:00,41.0,32.0,29.84,NW,315,6.0,7.0,69,0.00,,,0.00,,2013-03-26 15:43:00,
2013-03-26 11:53:00,42.0,32.0,29.85,NNW,332,5.0,11.0,67,0.00,,,0.00,,2013-03-26 15:53:00,
2013-03-26 12:03:00,42.0,33.0,29.85,NW,311,3.0,11.0,69,0.00,,,0.00,,2013-03-26 16:03:00,
2013-03-26 12:13:00,42.0,33.0,29.85,NW,311,3.0,11.0,69,0.00,,,0.00,,2013-03-26 16:13:00,
2013-03-26 12:22:00,43.0,33.0,29.85,North,5,3.0,7.0,67,0.00,,,0.00,,2013-03-26 16:22:00,
2013-03-26 12:32:00,43.0,32.0,29.85,NW,306,1.0,11.0,66,0.00,,,0.00,,2013-03-26 16:32:00,
2013-03-26 12:42:00,43.0,32.0,29.85,NW,306,1.0,11.0,66,0.00,,,0.00,,2013-03-26 16:42:00,
2013-03-26 12:54:00,43.0,33.0,29.85,NNE,15,5.0,10.0,67,0.00,,,0.00,,2013-03-26 16:54:00,
2013-03-26 13:02:00,43.0,32.0,29.85,NW,305,6.0,11.0,64,0.00,,,0.00,,2013-03-26 17:02:00,
2013-03-26 13:12:00,43.0,32.0,29.85,NW,305,6.0,11.0,64,0.00,,,0.00,,2013-03-26 17:12:00,
2013-03-26 13:23:00,43.0,32.0,29.85,North,10,3.0,11.0,64,0.00,,,0.00,,2013-03-26 17:23:00,
2013-03-26 13:32:00,43.0,32.0,29.85,NW,324,3.0,9.0,65,0.00,,,0.00,,2013-03-26 17:32:00,
2013-03-26 13:42:00,43.0,32.0,29.85,NW,324,3.0,9.0,65,0.00,,,0.00,,2013-03-26 17:42:00,
2013-03-26 13:53:00,45.0,33.0,29.85,NNE,22,4.0,10.0,63,0.00,,,0.00,,2013-03-26 17:53:00,
2013-03-26 14:02:00,45.0,33.0,29.85,NW,321,7.0,12.0,62,0.00,,,0.00,,2013-03-26 18:02:00,
2013-03-26 14:12:00,45.0,33.0,29.85,NW,321,7.0,12.0,62,0.00,,,0.00,,2013-03-26 18:12:00,
2013-03-26 14:23:00,45.0,32.0,29.85,North,351,2.0,11.0,60,0.00,,,0.00,,2013-03-26 18:23:00,
2013-03-26 14:34:00,45.0,32.0,29.85,North,349,5.0,12.0,59,0.00,,,0.00,,2013-03-26 18:34:00,
2013-03-26 14:42:00,45.0,32.0,29.85,North,349,5.0,12.0,59,0.00,,,0.00,,2013-03-26 18:42:00,
2013-03-26 14:53:00,46.0,31.0,29.85,West,273,6.0,14.0,56,0.00,,,0.00,,2013-03-26 18:53:00,
2013-03-26 15:03:00,46.0,31.0,29.85,NNE,19,4.0,13.0,55,0.00,,,0.00,,2013-03-26 19:03:00,
2013-03-26 15:12:00,46.0,31.0,29.85,NNE,19,4.0,13.0,55,0.00,,,0.00,,2013-03-26 19:12:00,
2013-03-26 15:22:00,47.0,32.0,29.85,NNW,327,5.0,11.0,56,0.00,,,0.00,,2013-03-26 19:22:00,
2013-03-26 15:32:00,46.0,29.0,29.85,NNW,330,7.0,12.0,52,0.00,,,0.00,,2013-03-26 19:32:00,
2013-03-26 15:42:00,46.0,29.0,29.85,NNW,330,7.0,12.0,52,0.00,,,0.00,,2013-03-26 19:42:00,
2013-03-26 15:53:00,47.0,32.0,29.85,WNW,294,4.0,11.0,55,0.00,,,0.00,,2013-03-26 19:53:00,
2013-03-26 16:02:00,47.0,31.0,29.85,WNW,303,6.0,11.0,54,0.00,,,0.00,,2013-03-26 20:02:00,
2013-03-26 16:13:00,47.0,31.0,29.85,WNW,303,6.0,11.0,54,0.00,,,0.00,,2013-03-26 20:13:00,
2013-03-26 16:22:00,47.0,30.0,29.85,NNE,30,3.0,10.0,51,0.00,,,0.00,,2013-03-26 20:22:00,
2013-03-26 16:32:00,47.0,31.0,29.85,NNE,26,6.0,12.0,53,0.00,,,0.00,,2013-03-26 20:32:00,
2013-03-26 16:42:00,47.0,31.0,29.85,NNE,26,6.0,12.0,53,0.00,,,0.00,,2013-03-26 20:42:00,
2013-03-26 16:51:00,48.0,29.0,29.85,NW,324,4.0,7.0,47,0.00,,,0.00,,2013-03-26 20:51:00,
2013-03-26 16:52:00,48.0,30.0,29.85,NW,306,4.0,11.0,49,0.00,,,0.00,,2013-03-26 20:52:00,
2013-03-26 17:02:00,48.0,29.0,29.85,WNW,286,3.0,9.0,48,0.00,,,0.00,,2013-03-26 21:02:00,
2013-03-26 17:12:00,48.0,29.0,29.85,WNW,286,3.0,9.0,48,0.00,,,0.00,,2013-03-26 21:12:00,
2013-03-26 17:22:00,48.0,29.0,29.85,NW,324,4.0,7.0,47,0.00,,,0.00,,2013-03-26 21:22:00,
2013-03-26 17:33:00,48.0,29.0,29.85,NW,324,4.0,7.0,47,0.00,,,0.00,,2013-03-26 21:33:00,
2013-03-26 17:43:00,48.0,29.0,29.85,NW,324,4.0,7.0,47,0.00,,,0.00,,2013-03-26 21:43:00,
2013-03-26 18:22:00,47.0,29.0,29.85,West,279,5.0,10.0,49,0.00,,,0.00,,2013-03-26 22:22:00,
2013-03-26 18:33:00,47.0,29.0,29.85,West,279,5.0,10.0,49,0.00,,,0.00,,2013-03-26 22:33:00,
2013-03-26 18:42:00,47.0,29.0,29.85,West,279,5.0,10.0,49,0.00,,,0.00,,2013-03-26 22:42:00,
2013-03-26 18:52:00,47.0,29.0,29.85,West,279,5.0,10.0,49,0.00,,,0.00,,2013-03-26 22:52:00,
2013-03-26 19:23:00,45.0,28.0,29.87,NNW,345,4.0,7.0,51,0.00,,,0.00,,2013-03-26 23:23:00,
2013-03-26 19:32:00,45.0,29.0,29.88,West,280,3.0,7.0,53,0.00,,,0.00,,2013-03-26 23:32:00,
2013-03-26 19:43:00,45.0,29.0,29.88,West,280,3.0,7.0,53,0.00,,,0.00,,2013-03-26 23:43:00,
2013-03-26 19:53:00,44.0,28.0,29.88,NNW,331,3.0,8.0,52,0.00,,,0.00,,2013-03-26 23:53:00,
2013-03-26 20:02:00,44.0,28.0,29.89,NE,34,2.0,8.0,53,0.00,,,0.00,,2013-03-27 00:02:00,
2013-03-26 20:12:00,44.0,28.0,29.89,NE,34,2.0,8.0,53,0.00,,,0.00,,2013-03-27 00:12:00,
2013-03-26 20:22:00,43.0,28.0,29.89,NW,310,2.0,7.0,56,0.00,,,0.00,,2013-03-27 00:22:00,
2013-03-26 20:33:00,43.0,28.0,29.90,NW,313,1.0,4.0,56,0.00,,,0.00,,2013-03-27 00:33:00,
2013-03-26 20:42:00,43.0,28.0,29.90,NW,313,1.0,4.0,56,0.00,,,0.00,,2013-03-27 00:42:00,
2013-03-26 20:52:00,42.0,28.0,29.91,NW,313,2.0,3.0,58,0.00,,,0.00,,2013-03-27 00:52:00,
2013-03-26 21:02:00,42.0,28.0,29.91,WNW,292,3.0,4.0,58,0.00,,,0.00,,2013-03-27 01:02:00,
2013-03-26 21:12:00,42.0,28.0,29.91,WNW,292,3.0,4.0,58,0.00,,,0.00,,2013-03-27 01:12:00,
2013-03-26 21:23:00,42.0,29.0,29.93,West,272,3.0,4.0,60,0.00,,,0.00,,2013-03-27 01:23:00,
2013-03-26 21:33:00,42.0,30.0,29.93,West,281,11.0,13.0,62,0.00,,,0.00,,2013-03-27 01:33:00,
2013-03-26 21:42:00,42.0,30.0,29.93,West,281,11.0,13.0,62,0.00,,,0.00,,2013-03-27 01:42:00,
2013-03-26 21:53:00,41.0,31.0,29.93,WNW,293,5.0,14.0,66,0.00,,,0.00,,2013-03-27 01:53:00,
2013-03-26 22:03:00,40.0,30.0,29.93,NW,304,5.0,10.0,68,0.00,,,0.00,,2013-03-27 02:03:00,
2013-03-26 22:12:00,40.0,30.0,29.93,NW,304,5.0,10.0,68,0.00,,,0.00,,2013-03-27 02:12:00,
2013-03-26 22:22:00,39.0,30.0,29.93,WNW,290,3.0,7.0,70,0.00,,,0.00,,2013-03-27 02:22:00,
2013-03-26 22:32:00,38.0,29.0,29.93,WNW,302,2.0,5.0,71,0.00,,,0.00,,2013-03-27 02:32:00,
2013-03-26 22:42:00,38.0,29.0,29.93,WNW,302,2.0,5.0,71,0.00,,,0.00,,2013-03-27 02:42:00,
2013-03-26 22:53:00,37.0,29.0,29.93,WNW,303,1.0,12.0,72,0.00,,,0.00,,2013-03-27 02:53:00,
2013-03-26 23:02:00,37.0,29.0,29.94,WNW,291,2.0,4.0,72,0.00,,,0.00,,2013-03-27 03:02:00,
2013-03-26 23:12:00,37.0,29.0,29.94,WNW,291,2.0,4.0,72,0.00,,,0.00,,2013-03-27 03:12:00,
2013-03-26 23:22:00,36.0,29.0,29.93,WNW,288,1.0,4.0,75,0.00,,,0.00,,2013-03-27 03:22:00,
2013-03-26 23:33:00,36.0,29.0,29.94,West,279,1.0,5.0,76,0.00,,,0.00,,2013-03-27 03:33:00,
2013-03-26 23:42:00,36.0,29.0,29.94,West,279,1.0,5.0,76,0.00,,,0.00,,2013-03-27 03:42:00,
2013-03-26 23:53:00,35.0,28.0,29.93,WNW,283,5.0,6.0,76,0.00,,,0.00,,2013-03-27 03:53:00,